Station FTGM4 - 9014098 - Fort Gratiot, MI Image indicating link to RSS feed of recent meteorological observations for station FTGM4


Conditions at FTGM4 as of
(1:00 pm EDT)
1700 GMT on 04/22/2026:
     

Click on the graph icon in the table below to see a time series plot of the last five days of that observation.

5-day plot - Wind Direction Wind Direction (WDIR):ENE ( 60 deg true )
5-day plot - Wind Speed Wind Speed (WSPD): 7.0 kts
5-day plot - Wind Gust Wind Gust (GST): 8.0 kts
5-day plot - Atmospheric Pressure Atmospheric Pressure (PRES):29.98 in
5-day plot - Pressure Tendency Pressure Tendency (PTDY):+0.01 in ( Rising )
5-day plot - Air Temperature Air Temperature (ATMP): 43.3 °F
5-day plot - Dew Point Dew Point (DEWP): 37.9 °F
5-day plot - Wind Chill Wind Chill (CHILL): 38.7 °F
5-day plot - Wind Speed at 10 Meters Wind Speed at 10 meters (WSPD10M): 5.8 kts
5-day plot - Wind Speed at 20 Meters Wind Speed at 20 meters (WSPD20M): 7.8 kts
5-day plot -  Wind Speed, Wind Gust and Atmospheric Pressure Combined plot of Wind Speed, Gust, and Air Pressure
NOS Water Level Observation Network Water Level
Previous observations
TIME
(EDT)
5-day plot - Wind Direction
WDIR
 
5-day plot - Wind Speed
WSPD
kts
5-day plot - Wind Gust
GST
kts
5-day plot - Wave Height
WVHT
ft
5-day plot - Dominant Wave Period
DPD
sec
5-day plot - Average Wave Period
APD
sec
5-day plot - Mean Wave Direction
MWD
 
5-day plot - Atmospheric Pressure
PRES
in
5-day plot - Pressure Tendency
PTDY
in
5-day plot - Air Temperature
ATMP
°F
5-day plot - Water Temperature
WTMP
°F
5-day plot - Dew Point
DEWP
°F
5-day plot - Salinity
SAL
psu
5-day plot - Visibility
VIS
nmi
5-day plot - Tide (above MLLW)
TIDE
ft
2026-04-22 12:54 pmENE 4.1 5.1----29.99- 43.7- 38.3---
2026-04-22 12:48 pmENE 5.1 5.1----29.99-------
2026-04-22 12:42 pm NE 5.1 5.1----29.99-------
2026-04-22 12:36 pm NE 5.1 5.1----29.99-------
2026-04-22 12:30 pm NE 4.1 5.1----29.99- 44.2- 39.0---
2026-04-22 12:24 pm NE 5.1 5.1----29.99- 43.0- 37.4---
2026-04-22 12:18 pm NE 4.1 5.1----29.99-------
2026-04-22 12:12 pm NE 4.1 6.0----29.99-------
2026-04-22 12:06 pm NE 6.0 6.0----29.99-------
2026-04-22 12:00 pm NE 4.1 4.1----29.98+0.03 43.7- 37.8---
2026-04-22 11:54 amNNE 4.1 5.1----29.99- 44.1- 37.9---
2026-04-22 11:48 amNNE 4.1 4.1----29.99-------
2026-04-22 11:42 am NE 4.1 5.1----29.98-------
2026-04-22 11:36 am NE 5.1 5.1----29.98-------
2026-04-22 11:30 am NE 5.1 5.1----29.98- 44.1- 38.7---
2026-04-22 11:24 am NE 5.1 7.0----29.98- 43.9- 38.7---
2026-04-22 11:18 amNNE 7.0 7.0----29.98-------
2026-04-22 11:12 am NE 6.0 8.0----29.98-------
2026-04-22 11:06 amNNE 7.0 7.0----29.98-------
2026-04-22 11:00 am NE 5.1 7.0----29.98+0.03 43.3- 37.9---
2026-04-22 10:54 amNNE 7.0 7.0----29.98- 43.7- 37.9---
2026-04-22 10:48 am E 4.1 7.0----29.98-------
2026-04-22 10:42 amNNE 6.0 7.0----29.97-------
2026-04-22 10:36 am NE 5.1 8.0----29.97-------
2026-04-22 10:30 amNNE 6.0 8.0----29.97- 44.1- 37.9---
2026-04-22 10:24 amNNE 6.0 8.9----29.97- 44.6- 38.7---
2026-04-22 10:18 am N 8.9 8.9----29.97-------
2026-04-22 10:12 amNNE 6.0 11.1----29.97-------
2026-04-22 10:06 am N 9.9 11.1----29.97-------
2026-04-22 10:00 am N 9.9 12.0----29.97+0.04 43.7- 38.5---
2026-04-22 09:54 am N 8.9 8.9----29.97- 43.3- 38.3---
2026-04-22 09:48 am N 7.0 8.0----29.96-------
2026-04-22 09:42 amNNE 6.0 8.0----29.96-------
2026-04-22 09:36 am N 8.0 8.0----29.96-------
2026-04-22 09:30 amNNE 7.0 8.0----29.96- 42.4- 37.8---
2026-04-22 09:24 am N 8.0 8.9----29.95- 42.4- 37.8---
2026-04-22 09:18 am N 7.0 8.9----29.96-------
2026-04-22 09:12 am N 8.9 8.9----29.96-------
2026-04-22 09:06 am N 7.0 9.9----29.96-------
2026-04-22 09:00 am N 8.9 9.9----29.95+0.04 43.2- 38.5---
2026-04-22 08:54 amNNE 7.0 8.0----29.96- 42.1- 37.6---
2026-04-22 08:48 am N 8.9 9.9----29.95-------
2026-04-22 08:42 am N 8.0 9.9----29.95-------
2026-04-22 08:36 am N 8.9 11.1----29.95-------
2026-04-22 08:30 am N 8.9 11.1----29.95- 43.2- 37.8---
2026-04-22 08:24 am N 9.9 9.9----29.95- 43.7- 38.5---
2026-04-22 08:18 am N 8.9 9.9----29.95-------
2026-04-22 08:12 am N 8.9 9.9----29.95-------
2026-04-22 08:06 am N 8.9 11.1----29.96-------
2026-04-22 08:00 am N 9.9 11.1----29.96+0.07 42.6- 38.3---
2026-04-22 07:54 am N 8.9 12.0----29.96- 43.5- 39.6---
2026-04-22 07:48 am N 9.9 12.0------------
2026-04-22 07:42 am N 8.9 11.1------------
2026-04-22 07:36 amNNE 7.0 8.0------------
2026-04-22 07:30 amNNE 8.0 8.0----29.95- 41.7- 38.7---
2026-04-22 07:24 am NE 7.0 8.0----29.94- 41.7- 38.8---
2026-04-22 07:18 amENE 8.0 9.9----29.94-------
2026-04-22 07:12 amENE 9.9 11.1----29.93-------
2026-04-22 07:06 amENE 9.9 9.9----29.93-------
2026-04-22 07:00 am E 8.0 8.9----29.93+0.06 42.3- 39.2---
2026-04-22 06:54 am E 8.0 8.9----29.93- 42.3- 39.4---
2026-04-22 06:48 amENE 8.9 9.9----29.93-------
2026-04-22 06:42 amENE 8.0 8.9----29.92-------
2026-04-22 06:36 amENE 6.0 7.0----29.92-------
2026-04-22 06:30 amENE 6.0 6.0----29.92- 42.4- 40.3---
2026-04-22 06:24 amENE 5.1 5.1----29.91- 42.6- 40.5---
2026-04-22 06:18 am NE 4.1 5.1----29.91-------
2026-04-22 06:12 amNNE 4.1 4.1----29.91-------
2026-04-22 06:06 amNNE 2.9 6.0----29.91-------
2026-04-22 06:00 am N 6.0 7.0----29.91+0.04 41.9- 39.7---
2026-04-22 05:54 am N 6.0 7.0----29.91- 41.9- 39.6---
2026-04-22 05:48 am N 6.0 7.0----29.90-------
2026-04-22 05:42 am N 6.0 8.0----29.90-------
2026-04-22 05:36 am N 8.0 8.0----29.90-------
2026-04-22 05:30 am N 8.0 8.9----29.89- 43.7- 40.8---
2026-04-22 05:24 am N 8.0 9.9----29.89- 44.2- 41.4---
2026-04-22 05:18 am N 8.0 9.9----29.89-------
2026-04-22 05:12 am N 9.9 11.1----29.89-------
2026-04-22 05:06 amNNE 8.0 8.0----29.89-------
2026-04-22 05:00 am N 2.9 4.1----29.89+0.02 43.5- 40.3---
2026-04-22 04:54 am N 1.9 4.1----29.88- 43.2- 39.7---
2026-04-22 04:48 amNNW 2.9 5.1----29.88-------
2026-04-22 04:42 amNNW 4.1 5.1----29.88-------
2026-04-22 04:36 amNNW 5.1 7.0----29.88-------
2026-04-22 04:30 amNNW 5.1 7.0----29.88- 47.1- 43.5---
2026-04-22 04:24 amNNW 6.0 8.9----29.88- 48.9- 44.6---
2026-04-22 04:18 am NW 6.0 8.0----29.88-------
2026-04-22 04:12 am NW 5.1 6.0----29.87-------
2026-04-22 04:06 amWNW 5.1 6.0----29.87-------
2026-04-22 04:00 am W 5.1 5.1----29.87+0.00 47.5- 43.2---
2026-04-22 03:54 am W 4.1 5.1----29.87- 47.8- 43.5---
2026-04-22 03:48 am W 5.1 6.0----29.87-------
2026-04-22 03:42 am W 4.1 5.1----29.86-------
2026-04-22 03:36 am W 4.1 5.1----29.86-------
2026-04-22 03:30 amWSW 5.1 6.0----29.86- 48.2- 43.3---
2026-04-22 03:24 amWSW 5.1 6.0----29.86- 48.7- 43.7---
2026-04-22 03:18 amWSW 5.1 6.0----29.86-------
2026-04-22 03:12 amWSW 6.0 6.0----29.86-------
2026-04-22 03:06 am W 6.0 7.0----29.86-------
2026-04-22 03:00 am W 6.0 7.0----29.87+0.00 48.0- 42.8---
2026-04-22 02:54 am W 6.0 7.0----29.87- 48.0- 42.8---
2026-04-22 02:48 am W 6.0 7.0----29.87-------
2026-04-22 02:42 am W 6.0 6.0----29.87-------
2026-04-22 02:36 amWSW 6.0 6.0----29.87-------
2026-04-22 02:30 amWSW 5.1 6.0----29.87- 47.8- 42.4---
2026-04-22 02:24 amWSW 5.1 6.0----29.87- 47.7- 42.4---
2026-04-22 02:18 amWSW 5.1 5.1----29.87-------
2026-04-22 02:12 amWSW 5.1 6.0----29.87-------
2026-04-22 02:06 am W 6.0 6.0----29.87-------
2026-04-22 02:00 amWSW 5.1 5.1----29.87+0.01 47.5- 42.1---
2026-04-22 01:54 amWSW 5.1 5.1----29.87- 46.2- 41.4---
2026-04-22 01:48 am W 5.1 5.1----29.87-------
2026-04-22 01:42 am W 4.1 5.1----29.87-------
2026-04-22 01:36 am W 4.1 4.1----29.87-------
2026-04-22 01:30 am W 1.9 5.1----29.87- 44.8- 39.9---
2026-04-22 01:24 am W 4.1 5.1----29.88- 46.9- 41.7---
2026-04-22 01:18 am W 2.9 6.0----29.88-------
2026-04-22 01:12 am W 2.9 4.1----29.87-------
2026-04-22 01:06 am N 1.9 2.9----29.87-------
2026-04-22 01:00 amNNE 2.9 5.1----29.87+0.00 46.2- 40.8---
2026-04-22 12:54 am N 1.9 2.9----29.87- 45.5- 39.9---
2026-04-22 12:48 am W 2.9 2.9----29.87-------
2026-04-22 12:42 am W 1.9 2.9----29.87-------
2026-04-22 12:36 amWSW 1.9 2.9----29.87-------
2026-04-22 12:30 amWSW 1.9 1.9----29.87- 46.8- 41.4---
2026-04-22 12:24 am SW 1.9 4.1----29.86- 47.3- 42.1---
2026-04-22 12:18 amWSW 2.9 4.1----29.86-------
2026-04-22 12:12 amWSW 2.9 2.9----29.86-------
2026-04-22 12:06 am- 0.0 1.0----29.86-------
2026-04-22 12:00 amWSW 1.0 1.9----29.86+0.00 45.7- 41.2---
2026-04-21 11:54 pm- 0.0 1.9----29.86- 45.3- 40.8---
2026-04-21 11:48 pmWSW 1.9 1.9----29.87-------
2026-04-21 11:42 pmWSW 1.0 1.9----29.87-------
2026-04-21 11:36 pm W 1.0 1.0----29.86-------
2026-04-21 11:30 pm W 1.9 2.9----29.86- 44.8- 40.8---
2026-04-21 11:24 pm W 1.9 2.9----29.86- 44.6- 40.8---
2026-04-21 11:18 pm- 0.0 1.0----29.86-------
2026-04-21 11:12 pm- 0.0 0.0----29.86-------
2026-04-21 11:06 pm- 0.0 1.9----29.86-------
2026-04-21 11:00 pmWNW 1.9 2.9----29.86+0.02 45.1- 40.1---
2026-04-21 10:54 pmWSW 2.9 2.9----29.86- 45.5- 40.6---
2026-04-21 10:48 pm W 1.9 2.9----29.86-------
2026-04-21 10:42 pm W 2.9 2.9----29.86-------
2026-04-21 10:36 pm W 2.9 4.1----29.86-------
2026-04-21 10:30 pm W 2.9 4.1----29.86- 46.9- 40.5---
2026-04-21 10:24 pmWNW 1.9 4.1----29.86- 46.0- 39.0---
2026-04-21 10:18 pmWNW 4.1 5.1----29.86-------
2026-04-21 10:12 pmWNW 4.1 5.1----29.86-------
2026-04-21 10:06 pmWNW 5.1 5.1----29.87-------
2026-04-21 10:00 pm NW 5.1 6.0----29.87+0.02 49.1- 42.3---
2026-04-21 09:54 pmNNW 5.1 6.0----29.87- 48.7- 42.8---
2026-04-21 09:48 pm N 5.1 8.0----29.87-------
2026-04-21 09:42 pm N 8.0 11.1----29.87-------
2026-04-21 09:36 pm N 8.0 8.9----29.86-------
2026-04-21 09:30 pm N 5.1 6.0----29.86- 47.1- 41.2---
2026-04-21 09:24 pmNNW 4.1 7.0----29.86- 46.9- 40.8---
2026-04-21 09:18 pmNNW 4.1 6.0----29.86-------
2026-04-21 09:12 pm N 1.9 5.1----29.85-------
2026-04-21 09:06 pmNNW 2.9 5.1----29.85-------
2026-04-21 09:00 pm N 4.1 5.1----29.86+0.01 48.7- 39.9---
2026-04-21 08:54 pm N 4.1 6.0----29.86- 50.7- 41.4---
2026-04-21 08:48 pm N 7.0 8.0----29.85-------
2026-04-21 08:42 pm N 7.0 8.0----29.85-------
2026-04-21 08:36 pm N 2.9 4.1----29.85-------
2026-04-21 08:30 pm N 4.1 6.0----29.85- 54.0- 42.1---
2026-04-21 08:24 pm N 1.9 6.0----29.85-------
2026-04-21 08:18 pm S 5.1 8.0----29.85-------
2026-04-21 08:12 pm S 6.0 8.0----29.85-------
2026-04-21 08:06 pm S 7.0 8.9----29.85-------
2026-04-21 08:00 pm S 6.0 8.0----29.84-0.01 60.3- 43.5---
2026-04-21 07:54 pmSSE 6.0 8.0----29.84- 59.7- 43.3---
2026-04-21 07:48 pmSSE 7.0 8.0------------
2026-04-21 07:42 pm SE 6.0 7.0------------
2026-04-21 07:36 pmSSE 5.1 7.0------------
2026-04-21 07:30 pmSSE 7.0 8.9----29.84- 60.3- 42.4---
2026-04-21 07:24 pmSSE 6.0 8.9----29.84- 60.6- 42.8---
2026-04-21 07:18 pmSSE 6.0 8.0----29.84-------
2026-04-21 07:12 pmSSE 6.0 8.9----29.84-------
2026-04-21 07:06 pmSSE 5.1 8.9----29.84-------
2026-04-21 07:00 pmSSE 6.0 8.0----29.84-0.03 60.8- 41.9---
2026-04-21 06:54 pm S 6.0 8.9----29.84- 61.9- 41.9---
2026-04-21 06:48 pm S 7.0 8.9----29.85-------
2026-04-21 06:42 pm S 5.1 11.1----29.84-------
2026-04-21 06:36 pmSSE 6.0 8.0----29.84-------
2026-04-21 06:30 pm S 7.0 9.9----29.84- 62.1- 42.1---
2026-04-21 06:24 pm S 7.0 8.9----29.84- 62.4- 42.4---
2026-04-21 06:18 pm S 6.0 9.9----29.84-------
2026-04-21 06:12 pm S 7.0 9.9----29.85-------
2026-04-21 06:06 pm S 6.0 8.9----29.85-------
2026-04-21 06:00 pm S 6.0 8.9----29.85-0.08 61.0- 42.4---
2026-04-21 05:54 pm S 5.1 8.0----29.85- 60.4- 42.1---
2026-04-21 05:48 pm S 8.0 12.0----29.84-------
2026-04-21 05:42 pm S 8.9 14.0----29.85-------
2026-04-21 05:36 pm S 8.0 13.0----29.85-------
2026-04-21 05:30 pm S 8.0 13.0----29.85- 61.0- 40.8---
2026-04-21 05:24 pm S 11.1 14.0----29.84- 60.1- 40.1---
2026-04-21 05:18 pm S 9.9 12.0----29.85-------
2026-04-21 05:12 pm S 7.0 15.0----29.85-------
2026-04-21 05:06 pm S 11.1 14.0----29.85-------
2026-04-21 05:00 pm S 8.9 13.0----29.85-0.09 60.4- 39.7---
2026-04-21 04:54 pm S 8.9 17.1----29.86- 60.6- 39.4---
2026-04-21 04:48 pm S 12.0 15.0----29.84-------
2026-04-21 04:42 pm S 11.1 17.1----29.85-------
2026-04-21 04:36 pm S 14.0 17.1----29.85-------
2026-04-21 04:30 pm S 11.1 20.0----29.87- 61.0- 38.3---
2026-04-21 04:24 pmSSW 13.0 19.0----29.88- 62.2- 38.3---
2026-04-21 04:18 pm S 11.1 19.0----29.88-------
2026-04-21 04:12 pm S 15.0 19.0----29.86-------
2026-04-21 04:06 pmSSW 13.0 15.0----29.88-------
2026-04-21 04:00 pm S 13.0 17.1----29.87-0.11 58.8- 37.4---
2026-04-21 03:54 pm S 9.9 15.9----29.89- 58.8- 36.9---
2026-04-21 03:48 pm S 11.1 15.0----29.90-------
2026-04-21 03:42 pmSSW 9.9 12.0----29.92-------
2026-04-21 03:36 pm S 9.9 13.0----29.91-------
2026-04-21 03:30 pmSSW 8.0 11.1----29.93- 57.7- 36.0---
2026-04-21 03:24 pm S 11.1 15.0----29.91- 57.4- 35.4---
2026-04-21 03:18 pmSSW 9.9 14.0----29.93-------
2026-04-21 03:12 pmSSW 6.0 9.9----29.95-------
2026-04-21 03:06 pmSSW 7.0 15.0----29.95-------
2026-04-21 03:00 pm S 12.0 15.9----29.93-0.08 56.8- 34.0---
2026-04-21 02:54 pm SW 8.0 15.0----29.95- 57.0- 34.3---
2026-04-21 02:48 pmSSW 11.1 15.9----29.93-------
2026-04-21 02:42 pmSSW 11.1 15.9----29.92-------
2026-04-21 02:36 pm S 8.9 18.1----29.93-------
2026-04-21 02:30 pm S 9.9 17.1----29.92- 56.8- 34.2---
2026-04-21 02:24 pmSSW 13.0 20.0----29.93- 56.7- 33.6---
2026-04-21 02:18 pmSSW 13.0 20.0----29.93-------
2026-04-21 02:12 pmSSW 15.9 22.0----29.93-------
2026-04-21 02:06 pmSSW 14.0 20.0----29.94-------
2026-04-21 02:00 pmSSW 14.0 21.0----29.95-0.10 56.3- 33.1---
2026-04-21 01:54 pmSSW 14.0 22.9----29.95- 55.8- 32.5---
2026-04-21 01:48 pmSSW 15.0 22.0----29.95-------
2026-04-21 01:42 pmSSW 15.0 24.1----29.95-------
2026-04-21 01:36 pmSSW 12.0 25.1----29.95-------
2026-04-21 01:30 pmSSW 19.0 22.9----29.96- 55.6- 32.2---
2026-04-21 01:24 pmSSW 15.9 22.0----29.96- 55.8- 32.2---
2026-04-21 01:18 pmSSW 12.0 24.1----29.96-------
2026-04-21 01:12 pmSSW 13.0 22.0----29.97-------
2026-04-21 01:06 pmSSW 14.0 21.0----29.97-------
2026-04-21 01:00 pmSSW 18.1 22.0----29.98-0.10 54.9- 32.2---
2026-04-21 12:54 pm S 17.1 22.9----29.98- 54.3- 32.2---